| time (UTC) | temp F | wind direction | speed MPH | gust MPH | rain 1hr in | rain 24hr in | rain mn in | humidity % | barometer mb |
| 20260903080617 | 56 | 202 | 0.0 | 0.0 | 0.00 | 0.00 | 0.00 | 54 | 1014.5 |
| 20260903075622 | 56 | 203 | 0.0 | 0.0 | 0.00 | 0.00 | 0.00 | 56 | 1014.4 |
| 20260903074613 | 56 | 245 | 0.0 | 0.0 | 0.00 | 0.00 | 0.00 | 54 | 1014.4 |
| 20260903073620 | 56 | 287 | 0.0 | 0.0 | 0.00 | 0.00 | 0.00 | 57 | 1014.4 |
| 20260903072628 | 56 | 287 | 0.0 | 0.0 | 0.00 | 0.00 | 0.00 | 54 | 1014.3 |
| 20260903071637 | 57 | 288 | 0.0 | 0.0 | 0.00 | 0.00 | 0.00 | 51 | 1014.3 |
| 20260903070627 | 57 | 288 | 0.0 | 0.0 | 0.00 | 0.00 | 0.00 | 49 | 1014.3 |
| 20260903065616 | 58 | 313 | 0.0 | 0.0 | 0.00 | 0.00 | 0.00 | 42 | 1014.4 |
| 20260903064622 | 57 | 331 | 0.0 | 0.0 | 0.00 | 0.00 | 0.00 | 44 | 1014.4 |
| 20260903063610 | 58 | 321 | 0.0 | 0.0 | 0.00 | 0.00 | 0.00 | 47 | 1014.4 |
| 20260903062618 | 59 | 329 | 0.0 | 1.0 | 0.00 | 0.00 | 0.00 | 51 | 1014.4 |
| 20260903061629 | 58 | 268 | 0.0 | 0.0 | 0.00 | 0.00 | 0.00 | 43 | 1014.3 |
| 20260903060632 | 58 | 261 | 0.0 | 0.0 | 0.00 | 0.00 | 0.00 | 39 | 1014.1 |
| 20260903055618 | 59 | 263 | 0.0 | 0.0 | 0.00 | 0.00 | 0.00 | 37 | 1014.2 |
| 20260903054626 | 59 | 263 | 0.0 | 1.0 | 0.00 | 0.00 | 0.00 | 38 | 1014.1 |
| 20260903053632 | 59 | 261 | 0.0 | 1.0 | 0.00 | 0.00 | 0.00 | 37 | 1014.2 |
| 20260903052624 | 59 | 279 | 0.0 | 0.0 | 0.00 | 0.00 | 0.00 | 32 | 1014.2 |
| 20260903051610 | 59 | 300 | 0.0 | 0.0 | 0.00 | 0.00 | 0.00 | 32 | 1014.2 |
| 20260903050616 | 60 | 209 | 0.0 | 0.0 | 0.00 | 0.00 | 0.00 | 30 | 1014.1 |
| 20260903045622 | 61 | 208 | 0.0 | 0.0 | 0.00 | 0.00 | 0.00 | 30 | 1014.0 |
| 20260903044625 | 62 | 208 | 0.0 | 0.0 | 0.00 | 0.00 | 0.00 | 31 | 1014.0 |
| 20260903043615 | 62 | 208 | 0.0 | 0.0 | 0.00 | 0.00 | 0.00 | 26 | 1014.1 |
| 20260903042621 | 62 | 208 | 0.0 | 0.0 | 0.00 | 0.00 | 0.00 | 29 | 1014.0 |
| 20260903041627 | 63 | 220 | 0.0 | 0.0 | 0.00 | 0.00 | 0.00 | 25 | 1013.9 |
| 20260903040618 | 64 | 252 | 0.0 | 4.0 | 0.00 | 0.00 | 0.00 | 25 | 1013.9 |
| 20260903035624 | 62 | 235 | 0.0 | 1.0 | 0.00 | 0.00 | 0.00 | 31 | 1013.9 |
| 20260903034611 | 61 | 259 | 0.0 | 0.0 | 0.00 | 0.00 | 0.00 | 28 | 1013.7 |
| 20260903033638 | 61 | 274 | 0.0 | 0.0 | 0.00 | 0.00 | 0.00 | 28 | 1013.6 |
| 20260903032625 | 60 | 262 | 0.0 | 0.0 | 0.00 | 0.00 | 0.00 | 29 | 1013.6 |
| 20260903031636 | 61 | 261 | 0.0 | 0.0 | 0.00 | 0.00 | 0.00 | 29 | 1013.5 |
| 20260903030623 | 60 | 279 | 0.0 | 0.0 | 0.00 | 0.00 | 0.00 | 30 | 1013.4 |
| 20260903025632 | 61 | 284 | 0.0 | 0.0 | 0.00 | 0.00 | 0.00 | 29 | 1013.4 |
| 20260903024618 | 61 | 284 | 0.0 | 0.0 | 0.00 | 0.00 | 0.00 | 32 | 1013.4 |
| 20260903023645 | 61 | 262 | 0.0 | 0.0 | 0.00 | 0.00 | 0.00 | 33 | 1013.3 |
| 20260903022616 | 61 | 271 | 0.0 | 1.0 | 0.00 | 0.00 | 0.00 | 34 | 1013.3 |
| 20260903021624 | 62 | 269 | 0.0 | 0.0 | 0.00 | 0.00 | 0.00 | 34 | 1013.2 |
| 20260903020632 | 64 | 263 | 0.0 | 0.0 | 0.00 | 0.00 | 0.00 | 35 | 1013.2 |
| 20260903015640 | 66 | 265 | 0.0 | 0.0 | 0.00 | 0.00 | 0.00 | 36 | 1013.4 |
| 20260903014643 | 68 | 250 | 0.0 | 0.0 | 0.00 | 0.00 | 0.00 | 32 | 1013.4 |
| 20260903013611 | 69 | 250 | 0.0 | 0.0 | 0.00 | 0.00 | 0.00 | 29 | 1013.4 |
| 20260903012618 | 69 | 250 | 0.0 | 0.0 | 0.00 | 0.00 | 0.00 | 26 | 1013.5 |
| 20260903011626 | 70 | 250 | 0.0 | 0.0 | 0.00 | 0.00 | 0.00 | 26 | 1013.6 |
| 20260903010614 | 70 | 288 | 0.0 | 0.0 | 0.00 | 0.00 | 0.00 | 26 | 1013.6 |
| 20260903005628 | 70 | 238 | 0.0 | 3.0 | 0.00 | 0.00 | 0.00 | 26 | 1013.6 |
| 20260903004615 | 70 | 252 | 0.0 | 11.0 | 0.00 | 0.00 | 0.00 | 26 | 1013.6 |
| 20260903003624 | 71 | 259 | 1.0 | 9.0 | 0.00 | 0.00 | 0.00 | 25 | 1013.6 |
| 20260903002612 | 71 | 274 | 2.0 | 9.0 | 0.00 | 0.00 | 0.00 | 27 | 1013.6 |
| 20260903001624 | 72 | 219 | 3.0 | 14.0 | 0.00 | 0.00 | 0.00 | 26 | 1013.5 |
| 20260903000626 | 72 | 234 | 5.0 | 12.0 | 0.00 | 0.00 | 0.00 | 25 | 1013.7 |
| 20260902235615 | 73 | 241 | 5.0 | 22.0 | 0.00 | 0.00 | 0.00 | 27 | 1013.7 |
| 20260902234622 | 72 | 259 | 5.0 | 22.0 | 0.00 | 0.00 | 0.00 | 26 | 1013.6 |
| 20260902233612 | 73 | 273 | 4.0 | 20.0 | 0.00 | 0.00 | 0.00 | 25 | 1013.6 |
| 20260902232619 | 73 | 242 | 4.0 | 16.0 | 0.00 | 0.00 | 0.00 | 27 | 1013.6 |
| 20260902231627 | 73 | 235 | 5.0 | 16.0 | 0.00 | 0.00 | 0.00 | 27 | 1013.7 |
| 20260902230634 | 73 | 227 | 5.0 | 17.0 | 0.00 | 0.00 | 0.00 | 27 | 1013.5 |
| 20260902225641 | 73 | 236 | 3.0 | 26.0 | 0.00 | 0.00 | 0.00 | 28 | 1013.5 |
| 20260902224611 | 74 | 222 | 4.0 | 16.0 | 0.00 | 0.00 | 0.00 | 28 | 1013.4 |
| 20260902223619 | 74 | 242 | 5.0 | 17.0 | 0.00 | 0.00 | 0.00 | 28 | 1013.4 |
| 20260902222627 | 74 | 241 | 4.0 | 14.0 | 0.00 | 0.00 | 0.00 | 27 | 1013.5 |
| 20260902221635 | 73 | 242 | 6.0 | 19.0 | 0.00 | 0.00 | 0.00 | 28 | 1013.6 |
| 20260902220643 | 73 | 234 | 6.0 | 19.0 | 0.00 | 0.00 | 0.00 | 28 | 1013.7 |
| 20260902215615 | 73 | 225 | 6.0 | 18.0 | 0.00 | 0.00 | 0.00 | 30 | 1013.6 |
| 20260902214622 | 73 | 216 | 3.0 | 25.0 | 0.00 | 0.00 | 0.00 | 30 | 1013.5 |
| 20260902213629 | 74 | 237 | 5.0 | 16.0 | 0.00 | 0.00 | 0.00 | 29 | 1013.5 |
| 20260902212637 | 74 | 246 | 5.0 | 21.0 | 0.00 | 0.00 | 0.00 | 28 | 1013.7 |
| 20260902211648 | 73 | 226 | 2.0 | 23.0 | 0.00 | 0.00 | 0.00 | 31 | 1013.5 |
| 20260902210616 | 73 | 248 | 4.0 | 19.0 | 0.00 | 0.00 | 0.00 | 30 | 1013.6 |
| 20260902205625 | 73 | 242 | 7.0 | 21.0 | 0.00 | 0.00 | 0.00 | 30 | 1013.9 |
| 20260902204611 | 73 | 260 | 3.0 | 17.0 | 0.00 | 0.00 | 0.00 | 30 | 1013.7 |
| 20260902203623 | 72 | 241 | 3.0 | 11.0 | 0.00 | 0.00 | 0.00 | 31 | 1013.8 |
| 20260902202611 | 72 | 237 | 6.0 | 23.0 | 0.00 | 0.00 | 0.00 | 31 | 1013.8 |
| 20260902201618 | 72 | 233 | 6.0 | 24.0 | 0.00 | 0.00 | 0.00 | 32 | 1014.0 |
| 20260902200643 | 72 | 252 | 5.0 | 22.0 | 0.00 | 0.00 | 0.00 | 33 | 1014.0 |
| 20260902195612 | 72 | 250 | 7.0 | 21.0 | 0.00 | 0.00 | 0.00 | 33 | 1014.2 |
| 20260902194644 | 72 | 230 | 4.0 | 20.0 | 0.00 | 0.00 | 0.00 | 32 | 1014.2 |
| 20260902193629 | 73 | 175 | 3.0 | 18.0 | 0.00 | 0.00 | 0.00 | 32 | 1014.2 |
| 20260902192615 | 73 | 233 | 6.0 | 23.0 | 0.00 | 0.00 | 0.00 | 32 | 1014.3 |
| 20260902191623 | 72 | 230 | 3.0 | 16.0 | 0.00 | 0.00 | 0.00 | 33 | 1014.4 |
| 20260902190614 | 72 | 254 | 7.0 | 20.0 | 0.00 | 0.00 | 0.00 | 34 | 1014.6 |
| 20260902185623 | 71 | 181 | 6.0 | 18.0 | 0.00 | 0.00 | 0.00 | 36 | 1014.6 |
| 20260902184630 | 71 | 253 | 5.0 | 14.0 | 0.00 | 0.00 | 0.00 | 34 | 1014.7 |
| 20260902183618 | 71 | 232 | 1.0 | 21.0 | 0.00 | 0.00 | 0.00 | 33 | 1014.8 |
| 20260902182628 | 70 | 213 | 2.0 | 19.0 | 0.00 | 0.00 | 0.00 | 36 | 1014.9 |
| 20260902181614 | 70 | 236 | 4.0 | 16.0 | 0.00 | 0.00 | 0.00 | 36 | 1015.0 |
| 20260902180613 | 69 | 219 | 1.0 | 6.0 | 0.00 | 0.00 | 0.00 | 37 | 1015.1 |
| 20260902175621 | 69 | 227 | 6.0 | 18.0 | 0.00 | 0.00 | 0.00 | 35 | 1015.2 |
| 20260902174628 | 71 | 229 | 6.0 | 16.0 | 0.00 | 0.00 | 0.00 | 33 | 1015.2 |
| 20260902173619 | 70 | 243 | 4.0 | 20.0 | 0.00 | 0.00 | 0.00 | 32 | 1015.2 |
| 20260902172625 | 69 | 242 | 6.0 | 21.0 | 0.00 | 0.00 | 0.00 | 33 | 1015.2 |
| 20260902171612 | 69 | 244 | 6.0 | 22.0 | 0.00 | 0.00 | 0.00 | 33 | 1015.2 |
| 20260902170619 | 69 | 256 | 5.0 | 25.0 | 0.00 | 0.00 | 0.00 | 32 | 1015.2 |
| 20260902165650 | 70 | 243 | 2.0 | 23.0 | 0.00 | 0.00 | 0.00 | 33 | 1015.1 |
| 20260902164614 | 70 | 243 | 11.0 | 39.0 | 0.00 | 0.00 | 0.00 | 34 | 1015.1 |
| 20260902163639 | 69 | 186 | 6.0 | 23.0 | 0.00 | 0.00 | 0.00 | 37 | 1015.0 |
| 20260902162645 | 70 | 167 | 11.0 | 25.0 | 0.00 | 0.00 | 0.00 | 36 | 1014.9 |
| 20260902161623 | 69 | 208 | 10.0 | 38.0 | 0.00 | 0.00 | 0.00 | 38 | 1015.0 |
| 20260902160616 | 67 | 182 | 1.0 | 9.0 | 0.00 | 0.00 | 0.00 | 48 | 1015.0 |
| 20260902155645 | 65 | 119 | 0.0 | 4.0 | 0.00 | 0.00 | 0.00 | 57 | 1015.0 |
| 20260902154613 | 65 | 85 | 0.0 | 0.0 | 0.00 | 0.00 | 0.00 | 59 | 1015.1 |
| 20260902153619 | 64 | 49 | 0.0 | 0.0 | 0.00 | 0.00 | 0.00 | 65 | 1015.1 |
| 20260902152645 | 63 | 17 | 0.0 | 0.0 | 0.00 | 0.00 | 0.00 | 68 | 1015.3 |
| 20260902151626 | 64 | 25 | 0.0 | 0.0 | 0.00 | 0.00 | 0.00 | 63 | 1015.4 |
| 20260902150632 | 63 | 164 | 0.0 | 0.0 | 0.00 | 0.00 | 0.00 | 63 | 1015.4 |
| 20260902145618 | 62 | 165 | 0.0 | 0.0 | 0.00 | 0.00 | 0.00 | 64 | 1015.4 |
| 20260902144625 | 61 | 165 | 0.0 | 0.0 | 0.00 | 0.00 | 0.00 | 65 | 1015.3 |
| 20260902143614 | 61 | 180 | 0.0 | 0.0 | 0.00 | 0.00 | 0.00 | 65 | 1015.3 |
| 20260902142641 | 59 | 229 | 0.0 | 0.0 | 0.00 | 0.00 | 0.00 | 74 | 1015.3 |
| 20260902141624 | 58 | 273 | 0.0 | 0.0 | 0.00 | 0.00 | 0.00 | 76 | 1015.4 |
| 20260902140611 | 56 | 286 | 0.0 | 0.0 | 0.00 | 0.00 | 0.00 | 80 | 1015.4 |
| 20260902135619 | 54 | 259 | 0.0 | 0.0 | 0.00 | 0.00 | 0.00 | 81 | 1015.4 |
| 20260902134630 | 53 | 238 | 0.0 | 0.0 | 0.00 | 0.00 | 0.00 | 82 | 1015.5 |
| 20260902133618 | 53 | 238 | 0.0 | 0.0 | 0.00 | 0.00 | 0.00 | 82 | 1015.6 |
| 20260902132623 | 52 | 239 | 0.0 | 0.0 | 0.00 | 0.00 | 0.00 | 80 | 1015.5 |
| 20260902131621 | 52 | 269 | 0.0 | 0.0 | 0.00 | 0.00 | 0.00 | 79 | 1015.4 |
| 20260902130620 | 53 | 271 | 0.0 | 0.0 | 0.00 | 0.00 | 0.00 | 79 | 1015.3 |
| 20260902125627 | 53 | 277 | 0.0 | 0.0 | 0.00 | 0.00 | 0.00 | 78 | 1015.2 |
| 20260902124614 | 53 | 275 | 0.0 | 0.0 | 0.00 | 0.00 | 0.00 | 78 | 1015.1 |
| 20260902123618 | 53 | 274 | 0.0 | 0.0 | 0.00 | 0.00 | 0.00 | 79 | 1015.2 |
| 20260902122646 | 53 | 275 | 0.0 | 0.0 | 0.00 | 0.00 | 0.00 | 81 | 1015.2 |
| 20260902121610 | 53 | 278 | 0.0 | 0.0 | 0.00 | 0.00 | 0.00 | 81 | 1015.2 |
| 20260902120635 | 52 | 275 | 0.0 | 0.0 | 0.00 | 0.00 | 0.00 | 81 | 1015.4 |
| 20260902115624 | 53 | 277 | 0.0 | 0.0 | 0.00 | 0.00 | 0.00 | 81 | 1015.4 |
| 20260902114613 | 53 | 273 | 0.0 | 0.0 | 0.00 | 0.00 | 0.00 | 81 | 1015.4 |
| 20260902113625 | 53 | 271 | 0.0 | 0.0 | 0.00 | 0.00 | 0.00 | 80 | 1015.4 |
| 20260902112613 | 54 | 280 | 0.0 | 0.0 | 0.00 | 0.00 | 0.00 | 79 | 1015.5 |
| 20260902111620 | 54 | 269 | 0.0 | 0.0 | 0.00 | 0.00 | 0.00 | 77 | 1015.5 |
| 20260902110626 | 54 | 270 | 0.0 | 0.0 | 0.00 | 0.00 | 0.00 | 77 | 1015.5 |
| 20260902105619 | 54 | 272 | 0.0 | 0.0 | 0.00 | 0.00 | 0.00 | 77 | 1015.6 |
| 20260902104625 | 54 | 272 | 0.0 | 0.0 | 0.00 | 0.00 | 0.00 | 78 | 1015.5 |
| 20260902103612 | 54 | 274 | 0.0 | 0.0 | 0.00 | 0.00 | 0.00 | 76 | 1015.6 |
| 20260902102619 | 54 | 263 | 0.0 | 0.0 | 0.00 | 0.00 | 0.00 | 78 | 1015.7 |
| 20260902101627 | 54 | 277 | 0.0 | 0.0 | 0.00 | 0.00 | 0.00 | 77 | 1015.6 |
| 20260902100613 | 55 | 270 | 0.0 | 0.0 | 0.00 | 0.00 | 0.00 | 77 | 1015.8 |
| 20260902095620 | 55 | 261 | 0.0 | 0.0 | 0.00 | 0.00 | 0.00 | 76 | 1015.8 |
| 20260902094627 | 55 | 271 | 0.0 | 0.0 | 0.00 | 0.00 | 0.00 | 76 | 1015.8 |
| 20260902093634 | 56 | 275 | 0.0 | 0.0 | 0.00 | 0.00 | 0.00 | 76 | 1015.9 |
| 20260902092623 | 56 | 267 | 0.0 | 0.0 | 0.00 | 0.00 | 0.00 | 76 | 1015.8 |
| 20260902091611 | 56 | 272 | 0.0 | 1.0 | 0.00 | 0.00 | 0.00 | 75 | 1015.9 |
| 20260902090618 | 56 | 265 | 0.0 | 0.0 | 0.00 | 0.00 | 0.00 | 75 | 1015.7 |
| 20260902085627 | 56 | 267 | 0.0 | 0.0 | 0.00 | 0.00 | 0.00 | 76 | 1015.7 |
| 20260902084617 | 56 | 267 | 0.0 | 0.0 | 0.00 | 0.00 | 0.00 | 76 | 1015.7 |
| 20260902083621 | 56 | 273 | 0.0 | 2.0 | 0.00 | 0.00 | 0.00 | 75 | 1015.7 |
| 20260902082626 | 57 | 271 | 0.0 | 2.0 | 0.00 | 0.00 | 0.00 | 74 | 1015.7 |
| 20260902081613 | 57 | 278 | 0.0 | 0.0 | 0.00 | 0.00 | 0.00 | 74 | 1015.6 |